Bradford, PA

5:07 PM EDT on October 20, 2019 (GMT -0400)
Bradford Regional

Weather History for KBFD - August, 2019

Change the Weather History Date:

Tuesday, August 27, 2019

  Actual Average Record
Temperature  
Mean Temperature 62 °F 63 °F  
Max Temperature 65 °F 74 °F 89 °F (1993)
Min Temperature 59 °F 51 °F 36 °F (1958)
Degree Days  
Heating Degree Days 3 1  
Month to date heating degree days 46 19  
Since 1 June heating degree days 180 228  
Since 1 July heating degree days 58 83  
Cooling Degree Days 0 1  
Month to date cooling degree days 63 48  
Year to date cooling degree days 253 172  
Since 1 June cooling degree days 246 162  
Growing Degree Days 12 (Base 50)    
Moisture  
Dew Point 58 °F    
Average Humidity 83    
Maximum Humidity 93    
Minimum Humidity 72    
Precipitation  
Precipitation 0.08 in 0.13 in 2.21 in (1987)
Month to date precipitation 4.31 3.61  
Year to date precipitation 32.28 29.45  
Sea Level Pressure  
Sea Level Pressure 29.98 in    
Wind  
Wind Speed 8 mph (SSE)    
Max Wind Speed 13 mph    
Max Gust Speed 18 mph    
Visibility 7 miles    
Events Rain    
T = Trace of Precipitation, MM = Missing Value Source: NWS Daily Summary

Daily Weather History Graph

Daily Weather History Graph

Search for Another Location

Airport or City:

Astronomy

Aug. 27, 2019 Rise Set
Actual Time 6:34 AM EDT 7:56 PM EDT
Civil Twilight 6:06 AM EDT 8:25 PM EDT
Nautical Twilight 5:31 AM EDT 9:00 PM EDT
Astronomical Twilight 4:54 AM EDT 9:36 PM EDT
Moon 2:54 AM EDT (8/27) 6:18 PM EDT (8/27)
Length of Visible Light 14h 19m
Length of Day
13h 21m
Waning Crescent, 11% of the Moon is Illuminated
Aug 27
Waning Crescent
Aug 30
New
Sep 5
First Quarter
Sep 14
Full
Sep 21
Last Quarter

Hourly Weather History & Observations

Time (EDT) Temp. Dew Point Humidity Pressure Visibility Wind Dir Wind Speed Gust Speed Precip Events Conditions
12:53 AM 62.1 °F 53.1 °F 72% 30.04 in 10.0 mi SSE 9.2 mph - N/A   Clear
1:53 AM 61.0 °F 53.1 °F 75% 30.02 in 10.0 mi SSE 9.2 mph - N/A   Clear
2:53 AM 61.0 °F 54.0 °F 78% 30.01 in 10.0 mi SSE 8.1 mph - N/A   Clear
3:53 AM 61.0 °F 54.0 °F 78% 29.99 in 10.0 mi SSE 8.1 mph - N/A   Scattered Clouds
4:14 AM 61.0 °F 54.0 °F 78% 30.02 in 10.0 mi SSE 9.2 mph - N/A   Mostly Cloudy
4:42 AM 61.0 °F 55.0 °F 81% 30.01 in 10.0 mi SSE 9.2 mph - 0.00 in Rain Light Rain
4:53 AM 60.1 °F 55.0 °F 83% 29.98 in 10.0 mi SSE 8.1 mph - 0.00 in Rain Light Rain
5:10 AM 60.1 °F 55.0 °F 83% 30.01 in 10.0 mi SSE 5.8 mph - 0.00 in Rain Light Rain
5:53 AM 60.1 °F 55.9 °F 86% 29.99 in 10.0 mi South 5.8 mph - 0.00 in   Overcast
6:10 AM 60.1 °F 55.9 °F 86% 30.02 in 10.0 mi SSE 5.8 mph - 0.00 in Rain Light Rain
6:53 AM 59.0 °F 55.9 °F 90% 29.99 in 3.0 mi SSE 6.9 mph - 0.01 in Rain Light Rain
7:03 AM 59.0 °F 55.9 °F 90% 30.02 in 2.0 mi SSE 6.9 mph - 0.01 in Rain Light Rain
7:15 AM 59.0 °F 55.9 °F 90% 30.01 in 1.5 mi SSE 8.1 mph - 0.04 in Rain Rain
7:30 AM 59.0 °F 55.9 °F 90% 30.02 in 2.5 mi SSE 6.9 mph - 0.05 in Rain Light Rain
7:37 AM 59.0 °F 55.9 °F 90% 30.02 in 6.0 mi SSE 8.1 mph - 0.05 in Rain Light Rain
7:53 AM 59.0 °F 55.9 °F 90% 29.99 in 3.0 mi SSE 11.5 mph - 0.05 in Rain Light Rain
8:53 AM 60.1 °F 57.0 °F 90% 29.99 in 6.0 mi SE 10.4 mph - 0.00 in   Overcast
9:53 AM 60.1 °F 57.0 °F 90% 29.98 in 4.0 mi SSE 9.2 mph - 0.01 in   Overcast
10:53 AM 61.0 °F 57.9 °F 90% 29.98 in 3.0 mi SSE 10.4 mph - N/A   Overcast
11:42 AM 61.0 °F 59.0 °F 93% 30.00 in 2.5 mi SSE 8.1 mph - 0.00 in Rain Light Rain
11:51 AM 62.6 °F 59.0 °F 88% 30.00 in 3.0 mi SSE 10.4 mph - 0.00 in Rain Light Rain
11:53 AM 62.1 °F 59.0 °F 90% 29.98 in 4.0 mi SSE 9.2 mph - 0.00 in   Overcast
12:53 PM 64.0 °F 60.1 °F 87% 29.96 in 9.0 mi SSE 9.2 mph - N/A   Overcast
1:53 PM 64.0 °F 60.1 °F 87% 29.96 in 10.0 mi Variable 5.8 mph - N/A   Overcast
2:53 PM 64.0 °F 60.1 °F 87% 29.95 in 10.0 mi Variable 6.9 mph - N/A   Overcast
3:53 PM 64.0 °F 60.1 °F 87% 29.94 in 6.0 mi SSE 8.1 mph - N/A   Overcast
4:53 PM 64.9 °F 61.0 °F 87% 29.93 in 5.0 mi SSE 9.2 mph - N/A   Overcast
5:53 PM 64.9 °F 61.0 °F 87% 29.93 in 6.0 mi SSE 9.2 mph - N/A   Overcast
6:53 PM 64.9 °F 61.0 °F 87% 29.93 in 10.0 mi SSE 6.9 mph - N/A   Overcast
7:53 PM 64.9 °F 61.0 °F 87% 29.93 in 10.0 mi SSE 6.9 mph - N/A   Overcast
8:53 PM 64.9 °F 61.0 °F 87% 29.94 in 9.0 mi SE 4.6 mph - N/A   Overcast
9:29 PM 64.9 °F 62.1 °F 90% 29.97 in 8.0 mi SSE 5.8 mph - N/A   Overcast
9:53 PM 64.9 °F 62.1 °F 90% 29.94 in 8.0 mi SSE 5.8 mph - N/A   Overcast
10:53 PM 64.9 °F 62.1 °F 90% 29.93 in 10.0 mi SSE 6.9 mph - N/A   Overcast
11:53 PM 64.9 °F 62.1 °F 90% 29.93 in 8.0 mi SSE 8.1 mph - N/A   Overcast